Regional Weather Roundup
Issued by NWS

Home | Current Version | Previous Version | Text Only | Print | Product List | Glossary Off
Versions: 1 2 3 4 5 6 7 8 9 10 11 12 13 14 15 16 17 18 19 20 21 22 23 24 25 26 27 28 29 30 31 32 33 34 35 36 37 38 39 40 41 42 43 44 45 46 47 48 49 50

000
ASUS43 KMKX 270200
RWRWI

WISCONSIN REGIONAL WEATHER ROUNDUP
NATIONAL WEATHER SERVICE MILWAUKEE/SULLIVAN WI
900 PM CDT FRI AUG 26 2016

NOTE: "FAIR" INDICATES FEW OR NO CLOUDS BELOW 12,000 FEET WITH NO
SIGNIFICANT WEATHER AND/OR OBSTRUCTIONS TO VISIBILITY.

WIZ001-002-006>008-014>016-023>028-270300-
NORTHWEST WISCONSIN

CITY           SKY/WX    TMP DP  RH WIND       PRES   REMARKS
SUPERIOR ARPT  CLOUDY    60  56  86 S5        30.10S
ASHLAND        MOCLDY    57  54  89 S3        30.14R
HAYWARD        PTCLDY    57  55  93 CALM      30.15R
SIREN          CLOUDY    62  57  82 CALM      30.13S
CUMBERLAND     CLOUDY    59  55  88 S3        30.14S
RICE LAKE      CLOUDY    61  56  85 CALM      30.16S
CHETEK         NOT AVBL
LADYSMITH      MOCLDY    60  56  87 CALM      30.17S
EAU CLAIRE     NOT AVBL
MENOMONIE      PTCLDY    64  60  89 CALM      30.14R
NEW RICHMOND   CLOUDY    63  55  77 CALM      30.14S
OSCEOLA        PTCLDY    63  59  88 S3        30.16S
$$

WIZ003>005-009-010-017-018-270300-
NORTH CENTRAL WISCONSIN

CITY           SKY/WX    TMP DP  RH WIND       PRES   REMARKS
MANITOWISH WTR NOT AVBL
ARBOR VITAE    PTCLDY    59  57  91 CALM      30.17R
WOODRUFF       PTCLDY    59  57  91 CALM      30.17R
RHINELANDER    CLOUDY    58  56  93 CALM      30.18R
EAGLE RIVER    PTCLDY    55  55  98 N3        30.17R
LAND O LAKES   PTCLDY    52  51  96 CALM      30.18R
PHILLIPS       PTCLDY    55  55  99 CALM      30.16R
TOMAHAWK       PTCLDY    56  54  92 CALM      30.17R
MEDFORD        CLOUDY    57  57 100 CALM      30.16R
MERRILL        CLOUDY    59  57  94 CALM      30.17S
$$

WIZ029-030-035-036-043>047-270300-
CENTRAL WISCONSIN

CITY           SKY/WX    TMP DP  RH WIND       PRES   REMARKS
WAUSAU         CLOUDY    64  56  75 CALM      30.15R
MOSINEE        CLEAR     63  57  82 CALM      30.17R
MARSHFIELD     CLOUDY    63  57  81 CALM      30.15S
STEVENS POINT  CLOUDY    59  56  88 CALM      30.17R
WAUPACA        CLOUDY    64  60  86 CALM      30.16R
WAUTOMA        CLOUDY    64  61  90 CALM      30.17R
WISC RAPIDS    CLOUDY    62  59  90 CALM      30.17R
CAMP DOUGLAS   CLOUDY    63  61  93 SE1       30.15R
$$

WIZ011>013-019>022-031-037>040-048>050-270300-
NORTHEAST WISCONSIN

CITY           SKY/WX    TMP DP  RH WIND       PRES   REMARKS
ANTIGO         CLOUDY    60  56  88 CALM      30.17S
SHAWANO        CLOUDY    66  57  74 CALM      30.16R
OCONTO         NOT AVBL
STURGEON BAY   PTCLDY    63  58  83 S5        30.16R
GREEN BAY      CLOUDY    63  62  97 CALM      30.15R
MANITOWOC      NOT AVBL
APPLETON       MOCLDY    66  54  63 CALM      30.15R
CLINTONVILLE   PTCLDY    63  55  77 CALM      30.16R
OSHKOSH        CLOUDY    66  58  75 CALM      30.17R
$$

WIZ032>034-041-042-053>061-270300-
SOUTHWEST WISCONSIN

CITY           SKY/WX    TMP DP  RH WIND       PRES   REMARKS
LA CROSSE      CLOUDY    69  63  81 SE6       30.13R
SPARTA         PTCLDY    65  61  88 SE3       30.15S
VIROQUA        CLOUDY    64  60  86 SE5       30.17R
BOSCOBEL       CLOUDY    65  63  93 CALM      30.14F
PRAIRIE DU CHI CLOUDY    65  62  90 CALM      30.14R
PLATTEVILLE    CLOUDY    66  65  96 N6        30.14S
$$

WIZ056-057-062-063-064-067-068-270300-
SOUTH CENTRAL WISCONSIN

CITY           SKY/WX    TMP DP  RH WIND       PRES   REMARKS
REEDSBURG      NOT AVBL
BARABOO/DELLS  CLOUDY    65  61  87 CALM      30.16R
LONE ROCK      NOT AVBL
MINERAL POINT  CLOUDY    66  63  88 N6        30.15S
MADISON        CLOUDY    66  60  81 NE5       30.16R
MIDDLETON      CLOUDY    67  62  85 CALM      30.16R
WATERTOWN      CLOUDY    68  61  77 NE6       30.15R
MONROE         CLOUDY    66  63  88 N7        30.15R
JANESVILLE     MOCLDY    72  61  68 NE7       30.14R
$$

WIZ051-052-058>065-066-070>072-270300-
SOUTHEAST WISCONSIN

CITY           SKY/WX    TMP DP  RH WIND       PRES   REMARKS
MILWAUKEE      CLOUDY    69  60  73 E3        30.17R
WAUKESHA       CLEAR     66  55  68 E6        30.18R
MILWAUKEE/TIMM CLEAR     70  55  60 CALM      30.18R
RACINE         CLOUDY    69  58  67 MISG      30.17R
BURLINGTON     CLOUDY    66  60  78 CALM      30.16R
KENOSHA        CLOUDY    67  61  81 E6        30.16R
FOND DU LAC    CLOUDY    63  60  90 CALM      30.17R
SHEBOYGAN      CLOUDY    62  57  83 CALM      30.17R
WEST BEND      CLOUDY    64  59  82 CALM      30.17R
JUNEAU         CLOUDY    65  60  81 CALM      30.17R
$$

LSZ147-162-270300-
LAKE SUPERIOR

STATION/POSITION TIME  TEMP    WIND        PRES    WAVE
                       AIR SEA DIR/SP/G            HT/PER
                 (UTC) (F)     (DEG/KT/KT) (MB)    (FT/S)
W MID LAKE BUOY  0050   65 67  180/  6/  6 1019.9F   1
DEVILS ISLAND    0100   64     150/  8/ 10 1020.0F
PORT WING        0140   65     140/  2/  7 1019.6S
SAXON HARBOR     0100   63     190/  4/  5 1020.0S
$$

LMZ867-665-643>646-270300-
LAKE MICHIGAN

STATION/POSITION TIME  TEMP    WIND        PRES    WAVE
                       AIR SEA DIR/SP/G            HT/PER
                 (UTC) (F)     (DEG/KT/KT) (MB)    (FT/S)
CHAMBERS ISLAND  0100   67     190/  2/  5 1020.3R
S GREEN BAY BUOY 0130   71 72  240/ 10/ 12 1019.9R
N MID LAKE BUOY  0050   69 71  230/  6/  8 1020.0R   1
NORTHPORT PIER   0100   67     170/  3/  4 1020.0S
SISTER BAY       0037   67     140/  5/  6   N/A
ALGOMA LAKESHORE 0045          210/  6/  8   N/A
KEWAUNEE LAKESHO 0100   62     270/  1/  2   N/A
SHEBOYGAN LAKESH 0100   66     210/  3/  3 1020.3R
PORT WASHINGTON  0100   65      CALM  /  1 1021.7
ATWATER BUOY     0100   64     250/  2/  4   N/A
MILWAUKEE LAKESH 0110   67     150/  1/  1   N/A
S MID LAKE BUOY  0050   71 75   50/  8/ 10 1020.1R   1
KENOSHA   LAKESH 0100   71      90/  7/  9 1020.3R
$$

TC  - TEMPERATURE IN CELSIUS
VSB - VISIBILITY IN STATUTE MILES
WCI - WIND CHILL INDEX
HX  - HEAT INDEX





USA.gov is the U.S. government's official web portal to all federal, state and local government web resources and services.